[[{"header":{"parameterUnit":"m.s-1","parameterCategory":1,"la1":30.2991,"la2":30.254,"lo1":-89.0895,"lo2":-89.0444,"dy":0.0017,"dx":0.0017,"nx":28,"ny":28,"refTime":"2024-06-12T09:00:00:Z","depth":0,"parameterNumber":2,"parameterNumberName":"U-component_of_WINDS"},"data":[0,0,0,0,0,0,0,0,0,0,0,0,0,0,0,0,0,0,0,0,0,0,0,0,0,0,0,0,0,0,0,0,0,0,0,0,0,0,0,0,0,0,0,0,0,0,0,0,0,0,0,0,0,0,0,0,0,0,-1.1236,-1.1236,0,-1.1175,-1.1174,-1.1173,-1.1125,-1.1124,-1.1124,-1.1123,-1.1059,-1.1058,-1.1056,0,0,0,0,0,0,0,0,0,0,0,0,0,-1.1311,-1.131,-1.1237,-1.1236,-1.1235,-1.1175,-1.1174,-1.1173,-1.1125,-1.1124,-1.1124,-1.1123,-1.1059,-1.1058,-1.1056,0,0,0,0,0,0,0,0,0,0,0,0,0,-1.1267,-1.131,-1.1237,-1.1204,-1.12,-1.1175,-1.1174,-1.1173,-1.1125,-1.1124,-1.1123,-1.1123,-1.106,-1.1058,-1.1056,-1.1058,0,0,-1.105,-1.1049,0,0,0,0,0,0,0,0,-1.1269,-1.1264,-1.1209,-1.1206,-1.1202,-1.1157,-1.1176,-1.1134,-1.1125,-1.1153,-1.1123,-1.1122,-1.1092,-1.1087,-1.1077,-1.1055,-1.1053,-1.105,-1.1049,-1.1048,-1.1047,0,0,0,0,0,0,0,-1.1273,-1.1267,-1.1212,-1.1209,-1.1204,-1.1191,-1.1184,-1.1168,-1.1127,-1.1151,-1.1147,-1.1141,-1.109,-1.1079,-1.1075,-1.1052,-1.105,-1.1048,-1.1047,-1.1046,-1.1027,-1.1028,0,0,0,0,0,0,-1.1281,-1.1269,-1.1214,-1.121,-1.1235,-1.1191,-1.1183,-1.1172,-1.1127,-1.112,-1.1141,-1.1139,-1.1083,-1.1078,-1.1073,-1.1072,-1.1048,-1.1046,-1.1045,-1.1027,-1.1027,-1.1028,0,0,0,0,0,0,-1.1283,-1.1276,-1.1216,-1.1239,-1.123,-1.119,-1.1178,-1.1171,-1.116,-1.112,-1.1112,-1.1138,-1.1082,-1.1076,-1.1062,-1.1069,-1.1045,-1.1044,-1.1026,-1.1027,-1.1028,-1.1071,0,0,0,0,0,0,-1.1285,-1.1277,-1.1278,-1.1239,-1.1229,-1.1207,-1.1179,-1.117,-1.1157,-1.1153,-1.1115,-1.1108,-1.1081,-1.1065,-1.106,-1.1066,-1.1042,-1.1025,-1.1026,-1.1027,-1.1069,-1.1073,-1.1077,0,0,0,0,0,-1.1288,-1.1293,-1.1279,-1.1272,-1.123,-1.1208,-1.1202,-1.1171,-1.1158,-1.1158,-1.1132,-1.1109,-1.1069,-1.1064,-1.1058,-1.1064,-1.1024,-1.1026,-1.1027,-1.1067,-1.1072,-1.1077,0,0,0,0,0,0,-1.1334,-1.1287,-1.1271,-1.1264,-1.124,-1.12,-1.1199,-1.1178,-1.1158,-1.1155,-1.1116,-1.1108,-1.1099,-1.108,-1.1075,-1.1063,-1.1044,-1.1044,-1.1076,-1.1081,-1.1085,-1.109,-1.1041,0,0,0,0,0,-1.1343,-1.133,-1.129,-1.1287,-1.1276,-1.124,-1.1229,-1.1207,-1.1181,-1.1171,-1.1144,-1.1119,-1.1101,-1.109,-1.1071,-1.1066,-1.1056,-1.1066,-1.107,-1.1074,-1.1075,-1.107,-1.1074,-1.1033,-1.1033,-1.1033,0,0,-1.1363,-1.1335,-1.1329,-1.1296,-1.1275,-1.1262,-1.1232,-1.1219,-1.1209,-1.1169,-1.1155,-1.1134,-1.1104,-1.1094,-1.1089,-1.1078,-1.1084,-1.1076,-1.1079,-1.1078,-1.1072,-1.1076,-1.1079,-1.1034,-1.1034,-1.1033,0,0,-1.1391,-1.1369,-1.1364,-1.1344,-1.1313,-1.1288,-1.1287,-1.125,-1.1235,-1.122,-1.1189,-1.1176,-1.1145,-1.1125,-1.111,-1.113,-1.1107,-1.1124,-1.1147,-1.1142,-1.1145,-1.1148,-1.1155,-1.1157,-1.1125,-1.1125,-1.1125,0,-1.1418,-1.1397,-1.1364,-1.1353,-1.1339,-1.1302,-1.1297,-1.1278,-1.1243,-1.1233,-1.1222,-1.1182,-1.1159,-1.1144,-1.1149,-1.1139,-1.1136,-1.1129,-1.1148,-1.115,-1.1152,-1.1158,-1.116,-1.1128,-1.1127,-1.1127,-1.1127,0,-1.1433,-1.1419,-1.1418,-1.1385,-1.137,-1.1362,-1.1327,-1.1316,-1.1295,-1.1272,-1.1257,-1.1228,-1.1202,-1.1196,-1.1176,-1.1178,-1.1173,-1.1155,-1.1135,-1.1159,-1.1163,-1.1165,-1.1131,-1.113,-1.1129,-1.1129,0,0,-1.1489,-1.1436,-1.1437,-1.1421,-1.1383,-1.1372,-1.1361,-1.1336,-1.1327,-1.1303,-1.1293,-1.1268,-1.1251,-1.1235,-1.1211,-1.1208,-1.1224,-1.119,-1.1189,-1.1197,-1.1224,-1.1238,-1.1241,-1.1209,-1.1209,-1.1209,-1.1226,0,-1.1511,-1.1491,-1.146,-1.145,-1.1436,-1.14,-1.1391,-1.1367,-1.1344,-1.1329,-1.1304,-1.1286,-1.1265,-1.1255,-1.125,-1.1223,-1.1229,-1.1222,-1.1199,-1.1198,-1.1208,-1.1243,-1.1258,-1.1275,-1.1228,-1.1228,-1.1229,0,-1.1534,-1.1513,-1.1501,-1.1464,-1.1457,-1.1449,-1.1423,-1.1409,-1.138,-1.1364,-1.1345,-1.132,-1.1306,-1.1288,-1.1268,-1.1264,-1.1252,-1.1238,-1.1238,-1.1234,-1.1215,-1.1241,-1.128,-1.1283,-1.1231,-1.1231,-1.1231,0,-1.1576,-1.1544,-1.1533,-1.152,-1.1476,-1.1472,-1.1453,-1.1424,-1.141,-1.1387,-1.1378,-1.1354,-1.134,-1.1322,-1.129,-1.128,-1.1274,-1.1253,-1.1259,-1.126,-1.126,-1.126,-1.1298,-1.1253,-1.1253,-1.1253,-1.1253,0,-1.1604,-1.1599,-1.1551,-1.1544,-1.1536,-1.15,-1.1493,-1.1471,-1.1445,-1.1433,-1.14,-1.1389,-1.1348,-1.1332,-1.1307,-1.1294,-1.1288,-1.1274,-1.1268,-1.1277,-1.1279,-1.1269,-1.1267,-1.1253,-1.1253,-1.1253,-1.1253,0,-1.165,-1.1618,-1.1603,-1.1563,-1.1552,-1.1548,-1.1513,-1.1505,-1.148,-1.1465,-1.1459,-1.142,-1.14,-1.1366,-1.1335,-1.1318,-1.131,-1.1299,-1.132,-1.1316,-1.1324,-1.1324,-1.1357,-1.1359,-1.1313,-1.1314,-1.1314,0,-1.167,-1.1665,-1.1624,-1.1613,-1.1596,-1.158,-1.1565,-1.1529,-1.1516,-1.1482,-1.1478,-1.1454,-1.1434,-1.1402,-1.1371,-1.1347,-1.1335,-1.1349,-1.1332,-1.1341,-1.1335,-1.1336,-1.1335,-1.1353,-1.1353,-1.1354,-1.1354,0,-1.1709,-1.1693,-1.1675,-1.165,-1.1634,-1.1613,-1.159,-1.1583,-1.1542,-1.1529,-1.1507,-1.1491,-1.146,-1.1437,-1.1408,-1.1388,-1.1365,-1.136,-1.136,-1.137,-1.1382,-1.1375,-1.1331,-1.1359,-1.1359,-1.1359,-1.1358,-1.1358,-1.1743,-1.1736,-1.1706,-1.1686,-1.1665,-1.1644,-1.1634,-1.1608,-1.1589,-1.1561,-1.154,-1.152,-1.149,-1.145,-1.1431,-1.1414,-1.1403,-1.1404,-1.1404,-1.1405,-1.1408,-1.1385,-1.1409,-1.1408,-1.1408,-1.1408,-1.1408,0,-1.178,-1.1759,-1.1741,-1.171,-1.1693,-1.1672,-1.1645,-1.1633,-1.1616,-1.159,-1.157,-1.1545,-1.1522,-1.1489,-1.1464,-1.1457,-1.1445,-1.1451,-1.1451,-1.1447,-1.1419,-1.1421,-1.1461,-1.1461,-1.1461,-1.1461,-1.1461,-1.1461,-1.1798,-1.1785,-1.1766,-1.1742,-1.172,-1.17,-1.1686,-1.1667,-1.1646,-1.1619,-1.16,-1.1579,-1.1549,-1.1521,-1.1499,-1.149,-1.1482,-1.1492,-1.1479,-1.1454,-1.1449,-1.1444,-1.1446,-1.1491,-1.1491,-1.1508,-1.1509,-1.1509]},{"header":{"parameterUnit":"m.s-1","parameterCategory":1,"la1":30.2991,"la2":30.254,"lo1":-89.0895,"lo2":-89.0444,"dy":0.0017,"dx":0.0017,"nx":28,"ny":28,"refTime":"2024-06-12T09:00:00:Z","depth":0,"parameterNumber":3,"parameterNumberName":"V-component_of_WINDS"},"data":[0,0,0,0,0,0,0,0,0,0,0,0,0,0,0,0,0,0,0,0,0,0,0,0,0,0,0,0,0,0,0,0,0,0,0,0,0,0,0,0,0,0,0,0,0,0,0,0,0,0,0,0,0,0,0,0,0,0,-0.2896,-0.2898,0,-0.3081,-0.3083,-0.3085,-0.3178,-0.3179,-0.3179,-0.3179,-0.3367,-0.3372,-0.3377,0,0,0,0,0,0,0,0,0,0,0,0,0,-0.2621,-0.2626,-0.2896,-0.2898,-0.29,-0.3081,-0.3083,-0.3086,-0.3178,-0.3179,-0.3179,-0.3179,-0.3366,-0.3371,-0.3377,0,0,0,0,0,0,0,0,0,0,0,0,0,-0.2767,-0.2627,-0.2895,-0.2968,-0.2977,-0.308,-0.3083,-0.3086,-0.3178,-0.3179,-0.3179,-0.3179,-0.3364,-0.3371,-0.3378,-0.3423,0,0,-0.3401,-0.3404,0,0,0,0,0,0,0,0,-0.2758,-0.2777,-0.2955,-0.2963,-0.2973,-0.3107,-0.3056,-0.3199,-0.3178,-0.3102,-0.3179,-0.3179,-0.328,-0.3295,-0.3329,-0.3432,-0.344,-0.3402,-0.3406,-0.3409,-0.3412,0,0,0,0,0,0,0,-0.2748,-0.2769,-0.2969,-0.2958,-0.2969,-0.2992,-0.3012,-0.3083,-0.3188,-0.3108,-0.3116,-0.3136,-0.3285,-0.3322,-0.3334,-0.3443,-0.3402,-0.3408,-0.3413,-0.3416,-0.3593,-0.3593,0,0,0,0,0,0,-0.2726,-0.276,-0.2963,-0.2975,-0.2864,-0.2996,-0.302,-0.3064,-0.3188,-0.3207,-0.3136,-0.314,-0.3309,-0.3326,-0.3341,-0.3403,-0.3409,-0.3416,-0.3421,-0.3592,-0.3593,-0.3593,0,0,0,0,0,0,-0.272,-0.2744,-0.2956,-0.287,-0.2898,-0.3001,-0.305,-0.3067,-0.3104,-0.3209,-0.3228,-0.3154,-0.331,-0.3331,-0.3402,-0.3411,-0.342,-0.3427,-0.3592,-0.3592,-0.3593,-0.3526,0,0,0,0,0,0,-0.2712,-0.2741,-0.2759,-0.2869,-0.2902,-0.3013,-0.305,-0.3071,-0.3117,-0.3124,-0.3231,-0.3249,-0.3311,-0.3391,-0.341,-0.3422,-0.3432,-0.3592,-0.3592,-0.3593,-0.3528,-0.3524,-0.3521,0,0,0,0,0,-0.2702,-0.2732,-0.2759,-0.2783,-0.2927,-0.3014,-0.3033,-0.3105,-0.3117,-0.3136,-0.3204,-0.3245,-0.3407,-0.3397,-0.342,-0.3434,-0.3592,-0.3592,-0.3593,-0.353,-0.3525,-0.3521,0,0,0,0,0,0,-0.262,-0.2748,-0.278,-0.2847,-0.2919,-0.3029,-0.3056,-0.3097,-0.3167,-0.317,-0.3256,-0.328,-0.3343,-0.3396,-0.3383,-0.3484,-0.3503,-0.3508,-0.3448,-0.3444,-0.3441,-0.3427,-0.3439,0,0,0,0,0,-0.2609,-0.2669,-0.2778,-0.2827,-0.2861,-0.2952,-0.2992,-0.3041,-0.3119,-0.315,-0.3223,-0.3297,-0.3364,-0.3407,-0.3475,-0.3536,-0.3561,-0.3556,-0.3553,-0.3549,-0.3553,-0.3591,-0.359,-0.3595,-0.3595,-0.3594,0,0,-0.2589,-0.2666,-0.2699,-0.2812,-0.2874,-0.2934,-0.2977,-0.3038,-0.3084,-0.316,-0.3232,-0.3288,-0.3376,-0.3442,-0.3475,-0.3488,-0.3557,-0.355,-0.3546,-0.3552,-0.3591,-0.359,-0.359,-0.3595,-0.3595,-0.3595,0,0,-0.2583,-0.2647,-0.2695,-0.2756,-0.2849,-0.2909,-0.2921,-0.3026,-0.3066,-0.314,-0.3198,-0.3253,-0.3367,-0.3428,-0.3474,-0.3491,-0.3532,-0.3511,-0.3492,-0.3528,-0.3527,-0.3528,-0.3535,-0.3537,-0.3514,-0.3513,-0.3513,0,-0.2545,-0.2639,-0.2715,-0.2774,-0.2822,-0.2893,-0.2943,-0.2999,-0.3108,-0.314,-0.3153,-0.3298,-0.3363,-0.3445,-0.3449,-0.3484,-0.35,-0.3499,-0.3521,-0.3522,-0.3524,-0.3532,-0.3534,-0.351,-0.3511,-0.3511,-0.3511,0,-0.2589,-0.2653,-0.268,-0.2786,-0.2837,-0.2891,-0.2975,-0.3018,-0.3063,-0.3121,-0.3196,-0.3276,-0.3362,-0.3385,-0.3428,-0.3474,-0.3479,-0.3505,-0.3526,-0.3519,-0.3528,-0.3532,-0.3506,-0.3507,-0.3508,-0.3509,0,0,-0.2537,-0.2684,-0.2693,-0.2742,-0.285,-0.2901,-0.2958,-0.3043,-0.3078,-0.3151,-0.3202,-0.3297,-0.3322,-0.3374,-0.3425,-0.3456,-0.3466,-0.3479,-0.3483,-0.3475,-0.3523,-0.3504,-0.3506,-0.3494,-0.3495,-0.3495,-0.3516,0,-0.2547,-0.2654,-0.2724,-0.2803,-0.2863,-0.2932,-0.2982,-0.3053,-0.3109,-0.3169,-0.3231,-0.3298,-0.3325,-0.3357,-0.3391,-0.3458,-0.3477,-0.3457,-0.3543,-0.3545,-0.352,-0.3511,-0.3491,-0.3506,-0.352,-0.3521,-0.3521,0,-0.2574,-0.2646,-0.2731,-0.2833,-0.2861,-0.2905,-0.2988,-0.3044,-0.3126,-0.3165,-0.3223,-0.3275,-0.3339,-0.3353,-0.3443,-0.3427,-0.3466,-0.3504,-0.3507,-0.3519,-0.3533,-0.3524,-0.3513,-0.3515,-0.3527,-0.3527,-0.3526,0,-0.2529,-0.2647,-0.2714,-0.2754,-0.2874,-0.2904,-0.2955,-0.3038,-0.3084,-0.3157,-0.3188,-0.3267,-0.331,-0.337,-0.3442,-0.3446,-0.3524,-0.3545,-0.3559,-0.3557,-0.3574,-0.3572,-0.357,-0.3596,-0.3596,-0.3596,-0.3596,0,-0.2534,-0.2584,-0.2696,-0.2737,-0.2795,-0.2875,-0.293,-0.2987,-0.306,-0.3113,-0.3176,-0.3225,-0.3317,-0.3377,-0.3433,-0.3499,-0.3518,-0.3551,-0.3566,-0.3547,-0.3543,-0.3574,-0.3576,-0.3596,-0.3596,-0.3596,-0.3596,0,-0.2495,-0.2572,-0.265,-0.2757,-0.2786,-0.2823,-0.2916,-0.2958,-0.3018,-0.3085,-0.3105,-0.3198,-0.3272,-0.335,-0.345,-0.3488,-0.3552,-0.3572,-0.3524,-0.3533,-0.3544,-0.3542,-0.3564,-0.3571,-0.3589,-0.3589,-0.3589,0,-0.2494,-0.2534,-0.2646,-0.2687,-0.2737,-0.2801,-0.285,-0.2929,-0.2977,-0.3074,-0.3105,-0.3183,-0.3251,-0.3366,-0.3443,-0.352,-0.3543,-0.3545,-0.3555,-0.3534,-0.3545,-0.3542,-0.3547,-0.3542,-0.3541,-0.3541,-0.354,0,-0.2485,-0.2521,-0.2588,-0.2669,-0.2724,-0.2791,-0.2861,-0.289,-0.2984,-0.3034,-0.311,-0.3162,-0.3265,-0.3343,-0.3429,-0.3482,-0.3527,-0.3537,-0.3544,-0.3526,-0.3497,-0.3514,-0.3517,-0.3536,-0.3537,-0.3537,-0.3537,-0.3537,-0.2466,-0.2505,-0.2591,-0.2663,-0.2724,-0.2788,-0.2833,-0.2899,-0.2964,-0.3054,-0.3097,-0.3174,-0.3256,-0.3377,-0.3429,-0.349,-0.3503,-0.3514,-0.3517,-0.3519,-0.3514,-0.3486,-0.3506,-0.3506,-0.3506,-0.3507,-0.3507,0,-0.2461,-0.252,-0.2586,-0.2681,-0.2738,-0.2775,-0.2854,-0.29,-0.2967,-0.304,-0.3105,-0.3193,-0.3269,-0.3351,-0.3432,-0.3466,-0.3488,-0.3484,-0.3483,-0.3495,-0.3498,-0.3484,-0.3465,-0.3465,-0.3465,-0.3465,-0.3465,-0.3465,-0.2466,-0.2535,-0.2581,-0.268,-0.2738,-0.2814,-0.2856,-0.2915,-0.2974,-0.307,-0.3133,-0.3187,-0.3264,-0.3351,-0.3422,-0.3444,-0.3472,-0.3462,-0.349,-0.3491,-0.3495,-0.3498,-0.3485,-0.3467,-0.3467,-0.3483,-0.3483,-0.3483]}]]